Location: Columbia
(38.9520°N, 92.3340°W)
Time: 10:54:16
(UTC-05:00)

Tiangong 1 - Visible Passes

Search period start: 30 August 2015 00:00
Search period end: 09 September 2015 00:00
Orbit: 366 x 385 km, 42.8° (Epoch: 30 August)

Date Brightness Start Highest point End Pass type
(mag) Time Alt. Az. Time Alt. Az. Time Alt. Az.
30 Aug 2.1 21:13:52 10° WNW 21:16:50 38° N 21:17:37 32° NE visible
31 Aug 2.2 20:11:21 10° WNW 20:14:19 39° N 20:17:17 10° ENE visible
31 Aug 2.9 21:48:06 10° WNW 21:50:01 32° NW 21:50:01 32° NW visible
01 Sep 1.9 20:45:39 10° WNW 20:48:39 42° N 20:50:20 21° ENE visible
01 Sep 4.5 22:22:13 10° WNW 22:22:21 11° WNW 22:22:21 11° WNW visible
02 Sep 1.2 21:19:42 10° WNW 21:22:38 70° NNW 21:22:38 70° NNW visible
03 Sep 1.6 20:17:10 10° WNW 20:20:15 51° NNE 20:22:53 13° E visible
03 Sep 3.7 21:53:49 10° W 21:54:54 19° W 21:54:54 19° W visible
04 Sep 1.0 20:51:07 10° WNW 20:54:15 75° SSW 20:55:09 42° SE visible
05 Sep 3.0 21:25:20 10° W 21:27:25 23° SW 21:27:25 23° SW visible
06 Sep 1.7 20:22:24 10° WNW 20:25:25 47° SSW 20:27:41 16° SE visible
07 Sep 3.4 20:56:58 10° WSW 20:58:58 16° SW 21:00:00 14° SSW visible
08 Sep 2.6 19:53:34 10° W 19:56:22 29° SSW 19:59:08 10° SSE visible
